Weather History for St. Petersburg Airport, FL

Change the Weather History Date:

Wednesday, August 7, 2013

  Actual Average Record
Temperature  
Mean Temperature 83 °F -  
Max Temperature 91 °F 90 °F 96 °F (1961)
Min Temperature 75 °F 77 °F 66 °F (1950)
Cooling Degree Days 18    
Growing Degree Days 33 (Base 50)    
Moisture  
Dew Point 75 °F    
Average Humidity 81    
Maximum Humidity 97    
Minimum Humidity 59    
Precipitation  
Precipitation 0.39 in - - ()
Sea Level Pressure  
Sea Level Pressure 29.95 in    
Wind  
Wind Speed 6 mph (East)    
Max Wind Speed 20 mph    
Max Gust Speed 38 mph    
Visibility 9 miles    
Events Rain , Thunderstorm    
Averages and records for this station are not official NWS values.
T = Trace of Precipitation, MM = Missing Value Source: NWS Daily Summary

Daily Weather History Graph

Daily Weather History Graph

Search for Another Location

Airport:

Trip Planner

Search our weather history database for the weather conditions in past years. The results will help you decide how hot, cold, wet, or windy it might be!

Date:

Astronomy

Aug. 07, 2013 Rise Set
Actual Time 6:56 AM EDT 8:15 PM EDT
Civil Twilight 6:31 AM EDT 8:40 PM EDT
Nautical Twilight 6:02 AM EDT 9:10 PM EDT
Astronomical Twilight 5:31 AM EDT 9:41 PM EDT
Moon 7:34 AM EDT (8/7) 8:34 PM EDT (8/7)
Length of Visible Light 14h 08m
Length of Day
13h 18m
New Moon, 1% of the Moon is Illuminated
Aug 7
New Moon
Aug 14
First Quarter
Aug 20
Full
Aug 28
Last Quarter
Sep 5
New

Hourly Weather History & Observations

Time (EDT) Temp. Heat Index Dew Point Humidity Pressure Visibility Wind Dir Wind Speed Gust Speed Precip Events Conditions
12:53 AM 82.0 °F 88.6 °F 75.0 °F 79% 29.96 in 10.0 mi ENE 4.6 mph - N/A   Clear
1:53 AM 81.0 °F 86.7 °F 75.0 °F 82% 29.95 in 10.0 mi ENE 4.6 mph - N/A   Clear
2:53 AM 81.0 °F 86.7 °F 75.0 °F 82% 29.93 in 10.0 mi East 5.8 mph - N/A   Clear
3:53 AM 80.1 °F 85.4 °F 75.9 °F 87% 29.91 in 10.0 mi East 8.1 mph - N/A   Clear
4:53 AM 79.0 °F - 75.9 °F 90% 29.92 in 10.0 mi East 5.8 mph - N/A   Clear
5:53 AM 79.0 °F - 75.0 °F 88% 29.92 in 10.0 mi East 5.8 mph - N/A   Clear
6:53 AM 79.0 °F - 75.9 °F 90% 29.94 in 10.0 mi ESE 3.5 mph - N/A   Clear
7:53 AM 80.1 °F 85.4 °F 75.9 °F 87% 29.96 in 10.0 mi East 5.8 mph - N/A   Clear
8:53 AM 82.0 °F 90.2 °F 77.0 °F 85% 29.96 in 10.0 mi ESE 10.4 mph - N/A   Clear
9:53 AM 84.9 °F 95.3 °F 77.0 °F 77% 29.97 in 10.0 mi East 6.9 mph - N/A   Clear
10:53 AM 86.0 °F 96.9 °F 77.0 °F 74% 29.97 in 10.0 mi Variable 6.9 mph - N/A   Clear
11:53 AM 88.0 °F 100.2 °F 77.0 °F 70% 29.98 in 10.0 mi ENE 8.1 mph - N/A   Partly Cloudy
12:53 PM 90.0 °F 101.3 °F 75.9 °F 63% 29.97 in 10.0 mi ESE 8.1 mph - N/A   Scattered Clouds
1:53 PM 91.0 °F 101.6 °F 75.0 °F 59% 29.95 in 10.0 mi ENE 5.8 mph - N/A   Clear
2:46 PM 91.4 °F 102.5 °F 75.2 °F 59% 29.94 in 10.0 mi NE 6.9 mph - N/A Thunderstorm Clear
2:53 PM 91.0 °F 101.6 °F 75.0 °F 59% 29.94 in 10.0 mi NE 6.9 mph - N/A Thunderstorm Thunderstorm
3:53 PM 86.0 °F 91.5 °F 71.1 °F 61% 29.92 in 10.0 mi NNW 16.1 mph 20.7 mph N/A Thunderstorm Thunderstorm
4:53 PM 82.9 °F 90.2 °F 75.0 °F 77% 29.92 in 10.0 mi West 6.9 mph - N/A   Clear
5:53 PM 84.9 °F 94.1 °F 75.9 °F 74% 29.91 in 10.0 mi WNW 5.8 mph - N/A   Clear
6:53 PM 84.0 °F 91.9 °F 75.0 °F 74% 29.92 in 10.0 mi North 8.1 mph - N/A Thunderstorm Scattered Clouds
7:26 PM 78.8 °F - 73.4 °F 83% 29.96 in 6.0 mi ENE 19.6 mph 38.0 mph 0.00 in Rain , Thunderstorm Thunderstorms and Rain
7:38 PM 75.2 °F - 71.6 °F 89% 29.96 in 1.5 mi ENE 15.0 mph 32.2 mph 0.18 in Rain , Thunderstorm Heavy Thunderstorms and Rain
7:48 PM 75.2 °F - 73.4 °F 94% 29.97 in 1.5 mi East 8.1 mph 19.6 mph 0.29 in Rain , Thunderstorm Heavy Thunderstorms and Rain
7:53 PM 75.9 °F - 73.0 °F 91% 29.96 in 5.0 mi ENE 3.5 mph - 0.33 in Rain , Thunderstorm Heavy Thunderstorms and Rain
8:37 PM 75.2 °F - 73.4 °F 94% 29.95 in 10.0 mi South 3.5 mph - 0.04 in   Clear
8:53 PM 75.9 °F - 75.0 °F 97% 29.95 in 10.0 mi ESE 3.5 mph - 0.05 in Rain Light Rain
9:00 PM 77.0 °F - 75.2 °F 94% 29.95 in 10.0 mi Calm Calm - 0.00 in Rain , Thunderstorm Light Rain
9:15 PM 77.0 °F - 75.2 °F 94% 29.94 in 10.0 mi Calm Calm - 0.01 in Rain Light Rain
9:53 PM 78.1 °F - 75.0 °F 90% 29.94 in 10.0 mi Calm Calm - 0.01 in   Partly Cloudy
10:53 PM 79.0 °F - 75.0 °F 88% 29.96 in 10.0 mi East 8.1 mph - N/A   Clear
11:53 PM 79.0 °F - 75.9 °F 90% 29.97 in 10.0 mi East 6.9 mph - N/A   Clear